Wind_Speed
31 30 29 28 27 27 25 23 23 23 23 22 21 23 23 24 24 23 22 21 20 18 17 16 16 16 16 16 16 17 18 19 20 21 21 22 22 22 22 22 21 21 20 20 20 20 20 20 21 21 21 21 21 21 22 22 22 21 22 22 22 23 23 23 24 25 26 27 27 28 29 28 28 29 29 29 30 30 30 30 30 30 29 29 29
34 32 32 31 30 28 27 26 26 25 24 23 23 23 24 24 24 24 23 22 21 20 19 18 17 16 16 15 15 15 16 16 17 18 19 20 21 22 23 24 24 24 23 23 23 22 22 22 22 23 23 23 24 24 24 25 25 25 25 25 25 25 26 26 26 27 28 29 29 30 31 31 31 31 32 32 32 32 32 33 33 33 33 33 32
36 35 35 34 33 32 31 30 29 27 26 25 26 26 26 26 26 26 25 24 22 22 21 20 19 18 18 17 17 17 16 16 16 17 17 18 19 20 21 22 23 24 25 25 25 25 24 24 24 24 25 25 26 26 27 28 28 28 28 28 29 29 29 29 29 30 30 31 32 32 33 34 34 34 34 34 34 34 35 35 35 35 35 35 35
37 36 36 36 36 35 34 33 31 30 30 29 29 30 30 29 28 28 28 27 25 24 24 22 21 20 20 20 20 19 19 18 17 17 18 18 18 18 19 20 21 22 23 24 24 24 24 24 25 25 26 26 27 28 28 29 30 30 31 31 32 32 32 32 33 32 32 33 34 35 35 35 35 36 37 37 37 37 37 37 37 37 37 37 37
36 35 35 36 37 37 36 35 35 34 33 34 34 33 33 32 30 29 30 30 30 28 27 25 24 23 23 22 22 21 22 21 20 20 19 20 20 20 19 19 20 20 21 22 23 23 23 23 24 24 25 26 27 28 29 29 30 31 31 32 33 33 34 35 35 35 35 35 35 36 37 37 37 37 37 38 38 38 39 39 39 39 39 39 39
37 37 36 37 37 37 36 36 37 37 36 36 36 35 35 34 32 31 32 33 34 32 29 28 27 26 26 25 24 24 23 23 24 24 24 23 24 24 23 22 22 22 23 23 23 24 25 25 26 26 27 27 27 28 29 30 31 31 32 32 32 33 33 35 36 37 37 37 37 37 37 37 38 38 38 38 38 38 39 39 39 39 39 40 40
41 41 41 41 40 39 38 37 38 39 41 41 39 38 37 36 35 36 36 35 34 34 32 30 29 29 29 29 28 28 27 26 26 26 27 26 27 27 27 26 26 26 27 28 28 29 30 30 31 31 31 31 30 30 31 31 31 32 33 33 33 33 33 33 34 36 37 38 38 38 38 38 38 38 39 39 39 39 39 39 38 38 38 38 38
44 44 44 44 43 42 41 40 39 40 42 44 43 41 40 37 34 35 37 37 36 36 36 35 34 33 33 32 32 32 32 30 30 30 30 30 30 31 31 30 30 30 29 30 31 32 33 33 33 32 32 33 33 33 34 34 34 34 35 36 36 36 36 35 34 34 35 36 37 38 38 38 39 39 39 40 40 39 39 39 38 38 38 37 36
46 46 46 46 45 44 44 43 42 42 43 45 45 43 42 39 36 35 37 37 38 39 39 39 39 38 38 38 37 37 36 35 34 34 35 35 36 36 35 35 35 34 33 33 32 31 31 31 31 32 33 34 34 34 35 36 36 37 38 38 39 39 39 39 38 37 37 37 37 37 38 38 39 40 41 41 41 40 40 40 39 39 38 37 36
44 46 47 47 47 46 46 46 45 46 47 48 48 47 46 45 43 42 40 40 40 42 42 42 42 41 41 41 41 41 41 40 38 38 39 39 40 40 39 39 39 39 38 37 36 35 35 35 35 36 37 38 38 38 38 38 38 39 39 40 41 41 42 42 42 41 41 40 40 41 40 39 39 41 42 42 43 42 42 42 41 40 39 38 37
43 44 45 46 47 47 47 47 47 48 49 50 50 50 49 48 47 46 45 45 44 44 45 44 44 44 44 43 43 43 44 43 41 41 42 43 43 43 42 41 41 41 42 42 41 40 40 40 41 41 41 42 42 42 42 42 42 42 42 42 43 44 44 44 44 45 45 44 44 44 44 43 42 42 43 44 45 46 45 45 44 44 43 42 41
44 44 44 45 46 46 47 47 48 50 50 51 51 51 50 49 49 49 49 49 48 47 47 46 45 46 46 45 45 46 46 44 43 43 44 44 45 45 45 44 43 43 45 46 45 44 43 43 43 43 43 44 44 45 45 46 46 45 45 45 46 47 47 47 46 47 47 47 46 46 47 47 46 45 46 47 48 49 49 48 48 48 48 47 47
46 46 45 45 46 47 48 49 50 51 51 51 51 51 51 50 50 50 50 51 51 51 50 49 49 49 49 49 48 48 49 47 46 47 47 47 47 48 48 47 46 46 46 47 47 47 46 46 46 46 46 46 46 47 48 48 49 49 50 50 49 50 50 50 49 49 49 49 49 49 50 50 49 49 50 50 51 51 52 52 52 52 52 52 52
48 47 47 48 48 49 51 52 53 53 53 53 53 53 53 53 52 52 51 51 52 52 52 52 53 53 52 52 52 52 51 49 49 51 51 51 51 51 51 50 49 48 49 48 49 49 49 49 48 48 49 49 48 48 49 50 51 52 53 53 53 52 52 52 52 51 51 51 51 52 52 53 53 53 53 53 53 53 54 54 54 55 55 56 56
49 49 48 49 51 52 54 55 56 57 56 56 56 56 56 56 55 55 54 53 52 53 53 53 54 55 55 54 56 56 53 51 52 53 54 54 54 54 54 53 52 52 51 50 51 51 51 51 52 52 52 51 50 49 50 51 52 53 54 54 54 54 54 54 54 53 52 52 52 53 53 54 55 55 56 55 55 55 55 55 56 56 57 58 59
50 50 50 50 51 52 54 56 57 58 58 57 56 57 57 57 57 56 56 55 54 54 54 54 55 57 57 56 57 57 55 54 55 55 55 56 56 56 56 55 54 54 53 52 53 52 53 54 54 54 54 54 53 52 52 52 53 54 54 54 54 54 55 56 56 56 55 54 53 53 54 55 56 57 58 58 58 58 58 58 58 58 58 58 59
51 51 52 52 52 52 53 54 55 56 56 56 56 56 56 56 57 56 56 57 56 56 56 55 55 57 58 57 57 55 55 56 56 56 56 56 56 56 55 54 54 54 53 53 54 54 55 55 55 55 55 55 55 55 54 54 54 54 54 55 55 55 56 57 58 58 57 56 55 55 56 57 59 60 60 61 61 62 62 60 61 62 61 60 60
52 52 52 52 52 52 53 53 54 54 54 55 55 55 56 56 56 56 56 56 56 56 56 55 55 56 57 57 56 54 55 56 56 56 56 56 55 55 54 53 53 53 54 54 54 55 55 55 55 54 55 56 56 54 53 52 52 52 52 53 53 55 56 58 59 59 58 57 57 57 57 58 58 59 60 61 62 64 64 64 65 66 65 64 64
52 52 53 53 53 53 53 53 53 53 53 54 54 54 54 55 55 55 55 55 55 55 55 55 55 55 55 56 55 54 55 55 55 56 56 55 55 54 54 53 53 53 54 54 54 55 55 54 54 54 54 54 53 50 49 49 50 51 51 51 51 52 54 56 58 59 59 59 59 59 59 59 58 56 56 57 58 60 62 63 65 66 66 67 68
51 52 52 52 53 53 53 53 53 53 53 53 53 53 53 53 54 54 54 55 54 54 54 54 54 53 53 54 54 54 55 55 55 55 55 54 54 54 54 54 53 53 53 53 54 54 53 53 52 51 50 49 48 49 50 51 52 52 53 53 53 52 53 53 54 56 58 59 59 59 59 59 59 57 56 56 57 57 59 60 61 62 63 63 65
51 51 51 52 52 53 53 53 53 53 53 53 53 53 53 53 53 53 53 53 53 53 53 54 53 52 53 53 53 53 54 54 54 54 54 54 53 53 54 54 53 53 53 52 53 52 51 51 50 49 49 50 51 53 54 54 53 53 53 54 54 54 54 54 54 55 56 57 58 59 59 59 59 59 59 59 60 60 61 61 62 62 62 62 62
50 50 50 51 51 52 52 52 53 53 53 53 53 53 53 53 53 53 53 52 52 52 53 53 52 52 52 52 52 52 53 53 53 53 53 53 53 53 53 53 52 52 51 51 50 50 49 50 50 48 50 53 53 53 53 52 51 51 51 52 53 53 53 54 55 56 57 58 60 61 61 62 63 64 64 65 65 66 66 66 66 66 65 65 65
49 49 49 50 50 50 50 51 51 51 52 52 53 53 52 52 53 53 52 52 52 52 53 53 52 52 52 52 52 52 52 52 52 52 52 52 52 52 51 51 51 50 49 49 48 48 48 49 49 49 51 52 52 51 50 49 49 49 49 50 52 53 54 55 56 58 59 60 62 63 64 65 65 65 66 66 66 67 67 68 68 68 69 69 69
50 49 49 49 49 49 49 49 49 49 49 49 50 51 51 51 52 51 51 52 52 52 52 53 53 52 52 52 52 51 51 51 51 51 51 51 50 50 50 50 49 49 48 47 47 47 48 49 50 50 51 51 50 50 49 49 48 48 50 52 54 55 56 56 57 58 59 60 62 64 65 65 64 63 62 63 64 65 66 66 67 68 69 69 70
51 50 49 49 49 49 49 48 48 48 48 49 49 50 51 49 48 48 50 52 52 51 52 52 52 52 52 51 51 51 51 50 50 50 50 49 49 49 48 48 48 48 47 47 48 48 49 50 50 49 49 49 50 50 50 50 50 50 53 55 57 57 56 56 56 57 58 59 61 62 63 63 62 61 61 63 64 65 66 67 67 67 68 68 68
51 50 49 49 49 49 49 49 49 49 49 49 49 50 50 47 46 47 50 51 50 50 51 51 51 52 51 50 50 51 51 50 50 49 49 48 48 48 47 47 47 47 47 48 49 50 50 49 48 47 48 49 50 50 51 51 52 53 56 58 59 59 59 59 60 60 60 61 62 62 62 61 61 61 63 65 66 67 67 68 68 68 69 69 69
52 51 50 50 50 49 49 50 50 50 50 50 49 49 48 47 47 49 50 49 50 50 50 50 50 50 50 50 50 50 50 49 49 48 48 48 47 47 47 47 47 47 47 48 48 47 47 46 46 47 48 49 50 50 51 53 55 58 60 61 62 63 63 64 65 64 64 63 63 63 63 63 64 66 68 69 68 68 68 68 69 69 70 71 71
53 51 50 50 50 50 49 50 50 50 50 50 49 48 48 48 48 49 49 50 51 51 50 50 50 49 49 49 49 49 49 49 48 48 47 47 46 46 46 46 46 46 46 45 44 43 43 44 45 46 47 49 50 52 55 58 61 62 63 63 64 66 67 67 66 65 64 63 63 63 64 65 66 68 69 69 69 68 69 69 69 69 70 71 71
54 53 52 51 50 50 50 50 50 50 50 50 49 49 50 49 49 49 49 49 50 49 49 49 49 48 48 48 48 47 47 47 47 46 45 44 43 43 43 43 43 43 43 42 42 41 42 43 45 46 48 51 54 57 59 61 61 61 61 62 62 63 64 65 65 65 65 65 65 66 66 67 68 69 70 70 70 70 70 70 70 70 71 71 71
55 54 53 52 52 51 51 51 50 50 50 50 50 51 51 50 50 49 49 48 47 46 45 45 44 43 43 43 43 43 43 43 42 40 38 37 38 39 40 40 40 40 40 40 40 40 42 44 47 49 53 55 57 58 58 58 58 59 60 61 62 62 63 64 64 64 64 65 65 65 65 65 65 65 66 66 66 66 66 66 66 66 65 65 64
54 54 53 52 52 51 51 50 48 46 45 46 47 47 47 47 46 44 43 42 41 40 39 38 38 38 37 37 37 37 35 32 30 30 30 31 33 34 35 35 35 36 36 38 39 41 44 47 49 52 53 54 55 55 56 57 58 59 59 60 60 60 59 59 58 58 58 58 58 58 58 57 56 56 57 57 57 57 57 57 57 56 56 55 54
53 52 51 51 49 47 47 45 42 39 39 41 41 40 38 36 35 34 33 32 32 32 31 29 29 30 29 29 29 28 26 25 25 27 28 29 30 30 30 31 33 34 37 39 41 42 44 46 48 49 50 51 52 53 54 55 56 56 56 56 55 55 55 55 55 55 55 54 54 53 52 51 50 49 49 48 48 49 49 49 48 48 47 46 45
50 48 46 43 41 39 38 36 32 32 33 33 31 29 26 24 23 23 24 24 24 24 24 23 23 24 24 23 23 23 23 25 27 29 29 29 29 30 30 32 34 35 37 38 39 40 41 43 44 46 47 49 50 51 52 52 53 53 53 53 54 55 56 56 55 53 52 50 48 47 46 45 44 42 42 41 42 42 42 43 43 43 42 41 41
43 39 35 32 31 29 28 26 25 26 26 24 22 21 20 19 18 17 18 18 18 18 20 21 22 23 23 22 22 22 22 23 24 25 26 27 28 29 29 30 30 31 32 33 34 36 38 40 42 44 46 47 49 50 51 51 52 53 53 54 54 54 53 51 49 46 44 43 42 40 39 38 37 36 35 36 37 38 38 39 39 39 38 38 38
29 26 25 24 23 22 21 21 21 21 21 20 19 19 19 19 18 19 19 18 18 18 18 19 20 21 21 21 21 20 20 21 21 22 22 22 22 22 23 24 25 26 28 30 33 35 37 39 41 43 45 46 48 49 50 51 52 52 52 51 49 47 45 42 39 37 36 35 34 33 32 31 30 31 32 33 34 35 35 35 35 35 35 35 35
19 19 19 19 19 19 19 20 20 20 20 19 19 19 20 20 21 21 21 21 20 20 18 17 18 19 19 18 18 19 19 19 18 16 15 14 15 16 18 20 22 25 28 30 32 34 36 37 39 40 42 45 47 49 50 50 49 47 45 43 40 37 34 32 31 29 28 28 27 26 26 26 28 30 31 32 32 31 31 30 31 31 31 32 32
16 16 16 17 17 18 18 19 20 20 20 20 19 19 20 21 22 22 21 20 21 20 19 17 17 17 17 17 17 16 14 13 11 9 9 10 12 14 17 20 23 25 27 28 30 31 33 34 37 39 41 43 45 46 46 44 41 38 35 33 29 27 27 27 26 25 24 24 24 24 25 26 28 29 29 29 28 27 27 27 28 29 29 30 31
15 16 17 18 20 20 20 21 22 22 22 22 21 19 19 20 21 21 20 19 19 19 18 17 17 16 16 14 13 11 9 7 6 6 7 9 11 14 16 19 21 22 24 25 27 29 31 33 35 37 40 41 42 42 40 36 32 29 27 24 23 23 23 23 23 22 21 21 21 22 23 24 25 26 26 26 27 27 27 27 28 29 30 30 31
12 14 16 18 19 20 22 23 23 23 23 23 22 21 20 20 20 20 18 17 16 16 16 16 15 15 13 11 9 8 6 5 4 5 6 8 10 12 14 16 18 20 22 24 26 29 31 33 35 37 39 39 39 37 33 28 24 22 22 22 22 22 20 17 16 16 16 16 17 18 20 21 23 24 25 26 27 27 27 27 27 28 28 28 28
11 13 15 17 18 19 21 21 21 21 22 22 21 21 20 19 19 19 18 17 16 16 16 16 15 13 11 9 8 7 5 3 2 3 4 6 8 11 14 16 18 20 23 25 27 29 31 33 35 37 38 37 35 32 26 21 19 19 20 20 19 16 14 12 12 13 15 16 17 19 21 23 23 23 23 24 24 24 24 24 24 24 24 24 24
13 15 16 17 18 19 19 19 19 19 20 21 20 18 17 17 18 18 18 18 18 18 16 14 13 11 10 9 8 6 4 3 2 1 3 7 10 13 16 18 20 22 23 25 27 30 32 34 36 37 37 36 32 26 20 17 17 17 17 14 12 10 9 10 12 14 15 16 18 20 21 20 18 17 18 18 18 19 19 19 20 20 19 19 20
14 16 17 18 19 19 19 18 18 18 19 19 17 16 16 17 18 19 20 20 18 16 15 13 12 12 11 9 7 6 6 5 2 2 5 9 12 15 18 20 22 23 25 26 28 30 32 34 36 37 38 36 30 22 17 16 16 15 12 9 8 8 9 12 14 14 15 17 19 19 16 14 13 14 14 15 16 16 17 16 16 15 15 16 19
12 13 15 16 17 17 17 17 17 17 17 16 15 15 17 19 20 21 21 19 17 16 15 14 13 12 11 10 9 8 7 4 1 3 6 9 12 15 18 21 24 25 26 27 29 31 33 35 36 38 38 35 28 19 15 15 16 14 11 9 9 9 11 13 14 14 15 19 20 16 12 12 14 15 16 16 16 15 15 14 13 13 13 15 17
8 9 11 13 14 15 15 16 16 15 15 15 16 18 19 21 21 21 19 18 17 16 16 15 14 13 12 11 10 8 6 3 1 3 6 9 12 15 18 21 24 26 27 29 30 31 33 35 37 38 38 35 27 18 14 14 15 13 9 8 8 8 10 11 12 13 16 19 17 12 11 12 14 13 13 13 12 11 10 10 10 10 9 10 9
3 3 5 7 9 11 12 13 14 16 17 19 20 22 22 22 21 20 19 19 18 17 16 16 15 14 13 12 10 7 4 2 1 3 6 9 12 15 17 20 23 26 28 30 31 32 34 35 37 38 39 36 29 18 13 13 14 11 8 6 7 7 7 9 12 15 17 17 12 9 10 11 10 8 8 7 5 4 4 4 4 4 4 2 2
6 7 7 7 8 10 12 15 17 19 21 22 23 23 22 22 21 20 19 18 17 17 17 16 14 14 13 11 9 6 4 2 1 3 6 9 11 14 17 19 22 25 28 31 33 34 34 35 37 38 39 38 32 21 13 12 13 11 8 7 7 7 8 10 13 14 13 9 6 7 8 7 4 4 5 4 2 2 3 4 4 3 3 3 5
5 8 10 11 13 14 17 19 20 21 21 21 21 20 20 20 19 19 18 18 17 17 16 14 14 13 12 11 8 6 4 3 2 4 6 8 11 13 16 19 22 25 28 30 33 35 36 36 37 38 39 39 36 25 15 12 12 10 8 7 6 7 10 12 10 8 5 4 3 4 4 1 2 5 7 7 7 7 7 8 8 8 8 7 7
4 7 9 12 14 15 16 17 17 17 17 17 17 17 18 17 17 17 17 17 17 16 15 14 14 14 12 11 9 7 5 4 4 5 6 8 11 13 16 18 21 24 27 29 32 35 37 37 37 38 38 39 39 31 19 12 11 10 8 7 6 7 10 10 6 2 1 1 1 1 2 2 4 5 6 7 8 8 8 8 7 8 9 9 8
5 6 7 9 11 12 12 13 13 13 14 14 15 15 16 16 16 16 15 16 15 15 14 14 14 13 12 11 9 8 6 6 6 7 7 9 11 13 15 18 20 23 26 28 31 34 37 37 37 37 37 39 40 36 26 15 10 9 8 6 6 7 8 6 1 3 3 4 3 3 3 4 4 4 5 6 7 8 8 8 7 7 7 7 8
5 5 6 7 8 9 10 10 11 12 12 13 14 14 15 15 14 14 14 14 14 14 13 13 14 13 13 12 10 8 7 7 8 8 8 9 11 13 15 17 19 22 24 27 29 32 35 37 38 37 37 38 39 38 31 19 11 9 7 6 5 5 5 1 5 6 6 6 6 5 5 5 5 5 6 8 9 10 11 11 10 8 7 6 7
6 6 6 7 8 8 9 9 10 11 12 13 13 14 14 14 14 14 14 14 14 14 14 13 13 13 13 12 11 10 10 10 10 10 10 10 11 13 14 16 19 21 23 25 28 30 33 36 38 37 37 37 38 38 34 24 14 10 8 6 5 5 2 5 9 8 6 6 4 4 4 6 7 7 7 7 7 8 8 9 9 8 7 5 5
Wind_Direction
250 252 253 255 256 256 255 255 257 258 257 258 261 263 264 264 263 263 265 265 267 269 270 268 267 265 262 259 257 258 260 262 262 262 261 260 260 260 260 260 259 258 257 255 254 254 256 258 260 260 261 261 262 262 262 262 262 262 262 261 261 261 261 261 261 263 266 268 268 270 270 269 269 269 269 269 270 270 270 270 270 270 269 269 268
244 247 248 250 252 253 253 256 258 258 258 257 259 262 264 264 263 262 262 261 263 267 268 266 263 263 263 264 263 261 261 261 262 263 263 262 262 262 262 263 263 263 263 262 261 259 258 259 261 262 263 263 263 264 265 265 265 264 264 264 264 263 263 263 262 262 264 265 266 266 268 268 268 268 268 268 269 269 270 270 270 270 269 269 269
248 247 243 243 247 250 251 254 255 256 256 257 259 260 261 262 261 262 261 259 257 260 261 261 259 258 259 262 265 265 262 260 260 260 261 262 263 263 264 265 265 265 266 266 266 265 264 264 264 265 266 266 267 266 266 266 266 266 266 266 266 266 266 265 265 264 264 266 266 265 266 267 267 268 268 268 268 268 268 269 269 269 269 269 269
262 258 249 244 245 247 249 251 252 254 256 258 260 259 259 259 258 260 262 262 259 257 256 255 254 254 255 257 259 260 260 259 259 259 259 260 260 262 263 265 266 267 267 267 267 267 267 267 267 267 268 268 269 269 270 270 269 269 269 268 268 267 267 267 266 266 266 267 268 268 267 267 267 267 268 268 269 269 269 269 269 269 270 270 270
265 265 261 257 255 253 253 253 251 251 254 258 260 260 259 260 260 260 262 263 262 260 257 254 253 251 252 253 254 254 255 256 257 258 259 260 261 261 261 262 263 264 265 266 267 268 269 271 272 272 272 271 270 269 270 270 270 271 271 271 270 270 269 268 267 266 266 266 267 268 269 269 268 268 268 267 268 269 269 270 270 270 270 270 270
261 262 261 261 260 259 261 261 255 251 254 259 261 261 260 261 263 264 263 262 262 262 260 257 254 252 252 252 252 253 253 254 255 256 256 259 263 263 263 262 263 264 264 264 265 266 268 272 275 278 278 277 275 274 273 271 270 270 270 270 270 271 271 270 269 268 267 266 265 266 268 269 269 269 269 269 268 268 268 269 269 270 270 270 270
259 260 260 260 259 260 264 266 262 258 260 260 259 259 258 259 262 263 262 261 260 261 261 259 256 255 254 253 253 253 254 255 256 256 256 258 261 264 264 263 265 268 268 267 268 270 271 273 275 278 279 278 278 278 278 277 275 273 271 270 269 269 270 270 269 269 269 268 267 266 266 267 267 267 268 269 269 269 269 269 269 269 269 269 269
258 258 260 260 260 260 261 262 261 259 259 258 257 256 254 256 264 264 260 259 260 262 263 262 261 261 260 258 257 256 256 257 258 258 259 260 262 263 264 263 266 270 272 273 274 275 275 276 277 278 279 279 279 279 278 278 278 277 275 273 272 270 270 270 270 269 268 268 267 267 266 266 266 266 265 266 267 267 268 269 269 269 269 268 267
257 258 259 260 261 260 259 258 257 257 258 260 260 259 256 257 264 265 260 259 261 263 264 264 264 264 264 263 262 260 259 259 260 262 263 263 264 265 265 265 268 271 273 275 278 279 279 279 278 280 281 281 282 282 282 281 280 279 278 276 274 272 271 270 270 270 269 268 268 267 267 266 266 265 264 264 264 264 265 267 268 268 268 268 267
258 259 259 260 262 262 262 261 259 258 259 261 263 263 261 261 263 263 262 261 260 261 263 264 264 264 263 264 264 264 263 261 262 265 266 267 266 267 268 269 271 273 274 276 278 279 279 279 279 280 282 283 283 284 284 284 284 283 282 280 277 275 273 271 270 269 269 269 268 268 267 267 266 264 263 263 263 263 263 264 265 264 264 264 265
259 259 259 260 261 262 263 264 263 262 261 261 262 263 263 263 262 262 261 260 260 261 263 264 266 266 265 265 265 265 265 263 264 265 266 268 268 268 269 270 271 273 276 278 280 280 280 280 280 280 280 281 282 283 284 284 285 286 286 285 283 279 275 273 271 269 268 268 268 267 266 266 265 265 264 263 263 263 263 263 263 263 262 262 262
258 258 258 258 258 260 261 262 262 262 262 262 262 263 263 263 262 260 260 260 260 261 262 264 266 268 268 267 266 266 265 265 267 267 266 268 270 270 270 270 271 274 277 279 281 282 281 281 280 280 280 280 281 282 283 283 284 284 285 286 286 284 280 276 273 270 268 267 266 265 264 264 263 264 265 264 263 263 263 264 264 264 264 263 263
258 258 257 256 256 258 260 260 260 260 261 262 263 264 265 266 265 263 261 261 261 261 262 263 264 265 266 267 267 266 266 267 270 270 270 270 271 271 272 272 274 275 277 279 281 282 283 282 281 280 280 279 279 280 281 281 281 282 283 283 284 284 283 280 277 274 271 268 266 264 264 263 263 264 265 265 264 263 263 263 263 263 264 264 265
258 258 257 255 255 255 257 258 259 260 260 261 261 262 264 266 267 267 265 264 263 263 263 263 263 264 264 266 267 266 265 268 270 271 270 271 271 272 272 273 275 276 277 278 280 281 282 282 281 280 280 279 279 278 278 278 278 280 281 282 282 281 279 278 278 277 275 272 270 267 266 265 264 264 265 266 265 263 263 262 261 262 262 263 265
258 257 256 255 254 254 254 256 258 260 261 261 261 262 263 264 266 267 267 266 266 265 265 265 265 265 264 265 267 266 266 268 269 270 270 271 271 272 272 273 275 276 277 278 279 279 280 280 279 279 280 280 279 278 277 276 276 278 279 279 279 277 275 274 273 273 273 273 272 271 270 269 267 266 267 266 265 264 262 261 261 261 261 261 263
257 257 257 256 255 254 254 255 257 259 261 262 262 262 263 264 264 265 266 266 266 266 266 266 266 266 266 266 266 267 268 269 268 268 269 270 270 271 272 273 274 275 277 277 278 277 277 277 277 278 278 279 279 278 277 275 274 275 276 276 275 274 273 272 270 269 269 270 271 271 270 269 268 268 267 266 265 264 263 262 261 261 260 259 260
258 258 258 258 258 257 257 257 257 259 261 262 262 263 263 264 264 265 265 266 266 266 266 266 266 266 267 267 267 268 268 268 268 269 269 269 270 271 272 274 275 275 276 276 276 276 275 276 277 278 278 278 278 278 277 275 275 274 274 274 273 273 272 271 270 269 269 269 270 270 270 269 268 268 267 266 266 265 264 263 263 262 261 260 259
260 260 260 260 260 260 260 259 259 259 260 261 261 262 263 264 264 264 265 265 266 266 266 266 265 266 267 267 268 268 267 267 268 269 270 270 271 272 273 274 274 274 275 275 275 275 276 277 278 278 278 278 278 277 275 274 274 275 275 273 273 272 271 269 269 269 269 269 268 269 269 268 268 268 267 267 266 266 265 265 264 264 264 263 262
262 262 262 262 262 262 262 262 262 262 262 262 261 261 262 262 263 264 264 264 264 265 265 265 265 265 266 266 266 266 266 267 268 269 270 271 272 273 273 273 273 273 274 274 275 276 277 278 278 278 278 278 276 274 272 273 275 276 276 275 273 272 271 270 270 269 269 268 268 268 267 267 267 267 267 268 268 268 267 266 265 265 264 264 264
263 263 263 263 263 264 264 264 264 264 263 263 263 262 262 261 262 262 263 263 264 264 264 264 264 263 263 264 265 265 265 266 267 269 270 270 271 272 272 272 272 273 274 274 275 276 276 277 276 276 276 275 272 271 274 277 278 278 277 276 274 272 272 271 271 270 270 269 268 268 267 267 266 266 266 267 267 268 268 268 267 266 265 264 264
262 262 262 262 263 263 263 264 264 264 264 264 263 263 263 262 261 261 261 262 263 263 263 264 263 263 263 263 263 263 264 265 266 266 267 268 269 269 270 270 271 272 273 273 274 275 275 275 275 275 274 272 272 273 276 278 278 278 277 276 275 274 273 272 272 271 271 270 269 269 268 268 267 267 266 266 266 266 266 266 267 268 267 267 266
262 262 261 261 261 261 262 262 262 263 263 263 263 263 262 262 262 262 262 262 262 262 263 263 263 263 263 263 263 263 264 264 265 265 266 266 267 267 268 269 270 271 271 272 272 273 274 275 276 275 273 273 274 275 276 277 277 276 275 275 274 274 274 273 272 271 270 269 268 268 268 268 268 268 268 267 266 266 265 265 265 266 267 268 268
263 263 262 261 261 260 260 260 260 260 261 262 262 262 262 262 262 262 262 262 262 262 262 263 263 263 263 263 264 264 264 264 265 265 265 266 266 267 268 268 268 269 269 270 271 273 273 275 275 274 273 274 275 275 276 276 275 274 274 274 273 273 273 273 272 271 270 269 269 268 268 268 268 269 269 269 268 268 267 266 266 266 266 266 267
264 264 263 262 262 261 261 261 261 261 260 260 261 261 261 260 261 262 262 262 262 262 263 263 263 264 264 264 264 265 265 265 265 265 265 266 266 267 268 268 268 269 269 270 271 272 273 273 273 273 273 274 275 275 275 275 274 274 274 274 274 273 273 273 273 273 273 273 272 271 270 269 269 269 270 271 272 271 270 269 268 268 267 267 267
265 264 263 263 262 262 262 262 262 262 262 261 261 261 261 260 261 261 261 261 261 261 262 263 264 264 264 265 265 266 266 266 266 266 266 266 267 267 268 268 269 270 270 271 272 272 272 271 271 272 273 273 273 274 274 274 274 275 276 275 274 274 273 272 273 274 275 275 275 273 271 269 268 269 270 273 274 274 273 272 271 270 269 269 268
265 264 263 263 263 263 263 263 263 263 263 262 262 262 262 262 262 261 260 260 261 261 261 263 264 265 265 265 265 265 266 266 267 267 267 267 267 268 269 269 270 271 271 271 272 272 271 270 270 271 272 272 273 273 274 274 275 276 277 276 275 273 272 273 274 276 277 276 276 274 272 269 267 268 271 274 275 275 274 273 272 271 271 271 270
264 264 263 263 264 264 264 263 263 263 263 263 262 262 263 263 262 260 260 261 261 261 261 262 263 263 264 264 264 264 265 266 267 267 267 267 268 268 269 269 270 270 271 271 271 270 269 268 269 271 273 274 274 274 275 277 279 279 279 277 276 274 274 275 277 279 279 277 275 274 273 270 269 270 272 274 275 275 274 273 272 272 272 271 271
265 264 264 264 264 264 264 263 263 263 263 264 264 264 263 262 261 261 261 261 261 261 261 261 261 262 262 262 262 263 263 264 265 265 266 266 267 267 267 267 268 268 269 269 269 268 267 268 270 273 274 275 276 277 279 280 281 281 279 278 277 277 277 278 279 280 279 278 276 275 274 272 272 272 273 274 275 275 274 273 273 272 272 271 271
267 266 266 265 265 265 266 266 265 265 265 265 265 264 264 263 263 262 262 261 261 261 261 261 261 261 261 262 262 262 262 262 262 262 263 263 263 263 263 264 264 265 266 268 269 270 270 271 273 275 277 278 279 280 281 281 281 281 281 280 279 279 279 279 279 279 279 278 277 276 275 274 274 274 273 273 274 274 274 273 273 273 272 272 272
265 265 265 266 266 266 266 266 266 267 266 266 266 265 264 264 264 263 263 263 262 261 261 261 261 261 260 260 260 259 259 259 259 259 260 259 259 259 260 261 262 264 267 270 272 273 275 276 278 280 281 282 282 282 282 282 283 282 282 282 281 280 280 279 279 279 278 277 276 275 274 274 273 273 272 272 272 272 272 272 272 271 271 271 271
263 263 264 264 264 264 264 264 265 265 265 265 265 264 264 264 264 263 262 261 259 259 259 258 257 256 255 254 254 254 253 253 253 253 252 252 253 256 259 262 265 269 272 275 276 278 280 282 283 283 283 283 283 283 284 284 283 283 282 282 282 282 282 281 281 280 279 277 276 275 274 273 273 272 271 271 271 270 270 270 270 270 270 270 269
262 262 262 263 263 263 263 263 262 260 260 260 261 261 261 260 257 254 252 251 250 250 249 248 248 249 247 246 247 246 242 239 242 246 248 251 255 259 265 269 273 275 278 280 281 282 283 282 282 282 283 284 285 285 285 285 285 285 285 286 286 286 286 285 284 283 281 280 278 277 276 275 273 272 271 271 270 270 269 269 269 269 268 267 266
260 260 260 260 259 258 257 256 252 248 249 252 254 253 248 242 239 240 239 238 238 237 233 232 237 243 243 243 246 246 240 236 240 246 252 257 263 268 272 274 276 278 279 280 281 282 282 283 285 287 288 289 289 289 289 290 290 290 291 291 290 289 288 287 285 284 282 280 278 276 275 274 272 271 271 270 269 269 269 269 268 267 265 264 264
256 255 253 250 247 245 243 241 236 236 239 241 239 233 225 220 224 231 229 223 223 226 226 228 233 238 241 243 244 245 244 243 245 250 255 260 263 267 269 272 274 277 279 281 284 286 289 291 293 294 294 294 294 294 294 294 294 293 293 292 290 289 287 286 284 283 281 279 277 275 273 272 270 269 268 268 269 270 270 270 269 268 267 267 266
246 240 234 230 228 226 225 224 224 227 229 227 222 220 217 213 217 224 222 215 214 220 228 233 236 237 239 240 241 242 246 250 252 254 256 257 260 263 268 273 278 283 287 291 293 295 296 297 297 297 297 297 296 296 296 295 294 293 292 291 289 287 286 284 283 281 279 277 275 273 270 267 266 266 268 270 272 273 273 272 271 270 269 268 267
222 216 214 213 212 213 215 218 219 221 221 220 219 218 214 209 210 217 219 217 218 225 233 237 236 235 236 238 241 244 247 248 249 249 251 255 264 273 281 288 293 296 298 299 299 299 299 300 300 300 300 299 298 297 296 295 295 293 291 289 288 287 286 284 282 280 278 276 273 270 268 267 268 270 273 275 275 274 273 271 270 269 268 267 266
210 208 207 209 213 216 217 218 219 219 216 214 212 210 206 204 207 213 217 219 223 229 233 232 231 232 234 234 235 234 233 233 235 243 257 274 289 297 301 302 302 301 300 300 301 302 304 305 305 305 304 303 301 299 298 297 295 293 290 289 289 288 285 283 281 280 278 275 273 272 272 272 273 275 276 276 275 274 273 272 271 270 268 267 267
216 216 215 217 220 218 213 212 214 212 206 202 202 203 204 206 208 212 218 223 226 229 230 231 230 226 220 215 211 209 211 221 239 264 287 301 307 308 306 304 303 302 303 305 308 310 312 312 312 312 311 308 305 302 301 300 296 292 290 290 291 291 289 286 283 280 279 278 278 278 279 278 278 279 279 278 278 277 275 274 273 271 270 270 270
199 201 203 206 207 204 201 201 203 200 195 195 198 202 207 210 212 218 227 234 236 234 229 222 212 200 190 185 188 196 210 230 262 293 307 312 313 315 315 315 314 314 314 316 317 319 320 320 320 320 318 315 310 307 304 300 294 289 289 291 293 294 294 290 285 283 284 285 285 286 287 287 287 285 283 281 279 278 276 275 273 272 272 271 270
171 176 181 185 186 185 187 190 192 192 192 194 197 200 205 212 221 231 238 237 228 216 203 190 179 172 173 181 192 200 209 227 268 300 314 325 334 338 338 335 332 329 327 326 326 327 327 327 327 327 326 322 317 311 306 300 294 289 289 292 294 294 293 292 292 293 292 290 290 293 295 295 293 290 285 282 280 278 277 276 274 273 273 272 271
158 161 163 167 168 170 174 179 182 185 189 193 196 200 210 222 229 229 223 211 198 187 176 168 166 172 181 189 191 189 187 190 203 296 353 358 357 355 353 351 347 342 337 334 333 333 333 333 333 333 332 329 323 316 308 304 302 300 299 298 293 289 296 303 304 301 299 299 300 301 300 298 295 290 286 283 281 278 276 275 275 275 275 275 275
158 160 162 164 166 169 174 178 181 185 190 194 198 206 218 222 216 205 194 185 176 169 165 168 175 182 186 184 181 177 177 178 171 27 12 5 1 360 360 359 356 350 345 341 339 339 339 338 338 340 339 335 328 318 311 313 316 316 313 302 284 281 296 308 309 306 308 313 315 312 309 307 303 300 296 292 289 285 282 279 279 279 278 280 282
155 164 170 173 174 176 179 182 185 188 193 198 204 211 211 204 192 182 174 168 164 166 172 178 183 183 181 177 176 177 176 169 117 23 10 1 357 357 359 360 358 355 351 347 345 344 343 343 344 345 344 341 333 322 316 323 327 323 312 294 282 286 298 307 310 310 312 317 320 318 312 309 307 305 303 298 293 289 285 281 279 277 277 282 285
144 155 165 171 174 176 180 184 188 192 198 204 206 204 196 186 178 170 166 165 169 175 180 183 182 179 177 177 180 180 175 159 74 17 4 354 351 353 357 358 358 357 355 352 349 347 347 348 349 349 348 347 341 328 321 330 334 327 310 291 284 291 301 303 302 303 306 311 313 309 300 300 303 304 304 300 292 283 277 273 271 270 275 287 294
204 195 184 181 180 181 184 191 198 202 203 201 196 190 184 178 173 170 170 173 178 182 183 182 180 179 180 182 184 182 177 165 28 4 355 347 346 350 354 355 356 357 356 355 353 351 350 351 352 351 352 352 348 335 323 327 331 328 322 314 306 305 304 294 289 293 301 305 304 295 292 297 304 312 319 316 302 281 271 270 268 262 263 292 353
228 235 233 226 217 207 202 201 201 199 194 188 183 179 176 174 174 176 178 179 182 185 185 183 182 185 187 187 187 190 196 206 329 344 341 340 342 347 350 352 354 355 356 356 356 355 353 353 354 354 355 356 354 345 328 324 329 327 322 320 320 321 316 304 296 297 304 308 303 297 297 301 322 5 24 34 51 98 116 112 105 105 112 111 106
210 218 217 213 211 206 199 194 191 186 182 178 176 176 176 178 180 182 183 183 185 187 187 185 188 195 197 196 196 205 216 232 289 317 325 332 337 342 347 350 352 354 355 356 357 357 356 355 355 356 357 358 358 354 338 323 328 328 314 302 310 327 328 322 314 309 311 308 294 288 284 290 60 59 62 67 75 87 101 107 108 105 100 99 104
171 189 195 196 195 191 186 183 180 177 177 178 179 181 183 186 188 188 187 188 190 190 190 192 198 206 208 206 207 216 229 249 275 296 312 324 331 337 343 347 349 351 354 355 356 358 358 357 356 357 357 358 360 359 350 329 323 324 310 291 295 322 333 332 327 308 277 270 248 240 209 142 106 89 82 79 78 79 81 87 96 103 103 102 105
145 164 177 183 182 179 177 176 176 178 183 187 190 192 193 194 193 193 193 195 196 196 197 202 210 216 220 221 222 227 240 257 274 288 303 316 324 331 338 343 346 349 351 353 354 357 359 358 357 357 358 359 0 1 356 342 324 322 314 290 286 315 332 333 301 163 140 115 97 94 114 122 117 109 98 90 86 84 80 77 78 87 97 106 111
136 159 177 184 184 182 183 185 187 190 194 197 199 201 202 201 200 200 201 203 205 206 208 212 218 224 229 233 234 239 250 264 275 284 295 308 319 325 330 337 342 346 349 351 353 355 358 359 358 357 358 359 360 1 359 351 333 322 319 296 281 307 327 278 167 149 125 105 89 80 93 108 112 108 104 99 93 87 80 74 68 66 74 93 108
139 157 175 188 193 194 196 199 202 205 207 209 210 211 211 209 208 209 210 212 215 217 219 222 227 233 238 243 248 254 260 266 272 281 290 301 312 319 325 331 338 342 345 349 351 353 356 358 359 358 358 358 359 0 1 358 345 326 318 301 282 291 279 182 168 153 130 121 117 103 104 111 111 109 104 93 79 70 66 59 51 46 52 72 97
Height
5714 5715 5715 5715 5716 5716 5717 5717 5718 5719 5720 5720 5721 5721 5721 5720 5720 5721 5721 5721 5722 5722 5722 5722 5722 5722 5723 5723 5723 5724 5724 5724 5725 5725 5726 5726 5726 5726 5726 5727 5727 5727 5727 5728 5728 5729 5729 5729 5730 5730 5731 5731 5731 5732 5732 5732 5733 5733 5734 5734 5734 5735 5735 5735 5736 5736 5735 5735 5736 5736 5736 5737 5738 5738 5739 5740 5740 5741 5741 5742 5743 5744 5745 5746 5747
5710 5711 5711 5711 5712 5713 5713 5714 5714 5716 5717 5717 5718 5718 5718 5717 5717 5718 5718 5718 5719 5719 5720 5720 5720 5720 5721 5721 5721 5722 5722 5722 5722 5723 5723 5723 5724 5724 5725 5725 5725 5725 5725 5725 5726 5726 5726 5727 5727 5727 5728 5728 5729 5729 5730 5730 5730 5730 5731 5731 5731 5732 5732 5732 5733 5733 5733 5732 5733 5733 5733 5733 5734 5735 5735 5736 5736 5737 5737 5738 5739 5739 5740 5741 5742
5706 5707 5707 5708 5708 5709 5710 5710 5711 5712 5713 5714 5714 5714 5714 5714 5714 5715 5716 5716 5716 5716 5717 5717 5717 5718 5718 5719 5719 5719 5720 5720 5720 5720 5720 5721 5721 5722 5722 5722 5723 5723 5723 5723 5723 5724 5724 5724 5724 5724 5725 5725 5726 5726 5727 5727 5727 5727 5728 5728 5728 5728 5729 5729 5729 5729 5730 5729 5729 5729 5729 5730 5730 5730 5731 5731 5732 5732 5733 5734 5734 5735 5736 5737 5738
5704 5704 5704 5704 5705 5706 5706 5707 5707 5708 5709 5710 5710 5710 5709 5709 5710 5711 5712 5713 5714 5714 5714 5714 5715 5715 5716 5716 5716 5716 5717 5717 5718 5718 5718 5718 5718 5718 5719 5719 5720 5720 5721 5721 5721 5721 5722 5722 5722 5722 5722 5722 5722 5723 5723 5723 5724 5724 5724 5725 5725 5725 5725 5725 5725 5726 5726 5726 5725 5725 5726 5726 5726 5727 5727 5727 5728 5728 5728 5729 5730 5730 5731 5732 5733
5700 5700 5701 5701 5702 5702 5703 5704 5704 5704 5705 5705 5705 5706 5706 5706 5706 5707 5708 5709 5710 5710 5711 5711 5712 5712 5713 5713 5713 5714 5714 5715 5715 5715 5715 5715 5715 5715 5715 5715 5716 5716 5717 5718 5718 5718 5719 5719 5719 5719 5719 5719 5719 5719 5720 5720 5720 5720 5721 5721 5721 5721 5721 5721 5721 5721 5722 5722 5722 5721 5721 5721 5722 5722 5722 5723 5724 5724 5724 5724 5725 5726 5726 5727 5727
5695 5695 5696 5697 5698 5698 5699 5700 5700 5700 5701 5701 5702 5703 5703 5703 5703 5703 5703 5704 5706 5706 5707 5707 5708 5709 5709 5710 5711 5711 5711 5712 5712 5713 5713 5713 5712 5712 5712 5712 5712 5713 5713 5714 5714 5714 5715 5715 5716 5716 5716 5716 5716 5716 5716 5717 5717 5717 5717 5717 5718 5718 5718 5718 5717 5717 5717 5717 5718 5717 5717 5717 5717 5717 5717 5717 5718 5719 5720 5720 5721 5721 5721 5722 5722
5690 5691 5691 5692 5693 5694 5694 5695 5696 5696 5697 5697 5698 5699 5699 5699 5700 5700 5699 5699 5701 5702 5702 5703 5704 5704 5705 5706 5707 5708 5709 5709 5710 5710 5710 5710 5709 5709 5709 5709 5709 5710 5710 5710 5710 5710 5711 5711 5711 5712 5712 5712 5712 5712 5712 5713 5713 5713 5713 5714 5714 5714 5714 5714 5714 5714 5714 5713 5713 5713 5713 5713 5713 5713 5713 5713 5713 5713 5714 5715 5715 5716 5716 5717 5717
5685 5685 5686 5686 5688 5689 5689 5690 5690 5691 5691 5691 5692 5693 5694 5694 5695 5695 5695 5695 5696 5697 5698 5699 5699 5699 5700 5702 5703 5704 5705 5706 5706 5706 5706 5707 5706 5706 5706 5706 5706 5706 5706 5706 5707 5707 5707 5707 5707 5707 5707 5707 5708 5708 5708 5708 5709 5709 5709 5709 5710 5710 5710 5710 5710 5710 5710 5710 5710 5710 5709 5709 5709 5709 5709 5708 5708 5709 5709 5709 5710 5710 5711 5712 5712
5679 5680 5680 5681 5682 5683 5684 5685 5685 5686 5686 5686 5686 5687 5688 5689 5690 5689 5689 5690 5691 5692 5693 5694 5694 5695 5696 5697 5698 5699 5700 5701 5702 5702 5702 5702 5702 5702 5702 5702 5702 5702 5703 5703 5703 5703 5703 5703 5703 5703 5703 5703 5703 5703 5703 5703 5704 5704 5704 5704 5704 5705 5705 5705 5706 5705 5705 5706 5706 5706 5706 5706 5705 5705 5704 5704 5704 5704 5704 5704 5705 5706 5706 5706 5707
5674 5674 5675 5675 5676 5677 5678 5679 5679 5680 5680 5680 5681 5681 5682 5683 5684 5683 5684 5685 5685 5686 5687 5688 5688 5689 5690 5691 5692 5693 5694 5696 5697 5698 5697 5697 5697 5697 5697 5698 5697 5697 5697 5698 5698 5699 5699 5699 5699 5699 5698 5698 5698 5698 5698 5698 5699 5699 5699 5699 5699 5699 5700 5700 5700 5700 5700 5701 5701 5700 5701 5701 5701 5701 5700 5700 5699 5699 5700 5700 5700 5701 5701 5702 5702
5669 5669 5670 5670 5671 5671 5672 5672 5673 5673 5674 5675 5675 5675 5676 5677 5678 5678 5679 5680 5680 5681 5681 5682 5682 5682 5684 5685 5686 5687 5688 5689 5691 5691 5691 5691 5691 5692 5692 5692 5692 5692 5692 5692 5692 5693 5693 5693 5693 5694 5694 5693 5693 5693 5693 5693 5693 5693 5693 5693 5694 5694 5694 5695 5695 5695 5695 5695 5695 5695 5695 5695 5696 5695 5695 5695 5694 5694 5695 5695 5695 5695 5696 5697 5697
5662 5663 5664 5664 5665 5666 5666 5667 5667 5667 5668 5668 5669 5670 5670 5671 5672 5673 5673 5674 5675 5675 5676 5677 5676 5676 5677 5679 5680 5681 5681 5684 5685 5685 5685 5685 5685 5686 5686 5687 5687 5687 5687 5686 5686 5686 5687 5687 5687 5687 5688 5688 5687 5687 5687 5687 5687 5687 5687 5687 5687 5687 5687 5688 5689 5689 5688 5689 5689 5689 5688 5689 5689 5690 5690 5689 5689 5689 5689 5689 5689 5689 5690 5690 5691
5656 5657 5657 5658 5659 5660 5660 5661 5661 5661 5662 5662 5663 5663 5664 5664 5665 5666 5667 5668 5668 5669 5670 5671 5671 5671 5671 5672 5674 5675 5675 5678 5679 5678 5678 5679 5679 5679 5679 5680 5682 5682 5681 5681 5680 5680 5680 5680 5680 5680 5680 5681 5681 5681 5681 5680 5680 5680 5681 5681 5681 5681 5680 5680 5681 5681 5681 5682 5683 5683 5682 5682 5683 5683 5683 5683 5683 5683 5683 5683 5683 5683 5683 5684 5684
5648 5649 5650 5650 5651 5652 5653 5654 5654 5655 5655 5656 5656 5657 5657 5657 5658 5658 5659 5660 5661 5662 5663 5664 5665 5665 5666 5666 5667 5668 5670 5672 5672 5670 5671 5672 5673 5673 5672 5674 5676 5675 5675 5675 5674 5674 5673 5673 5673 5672 5673 5673 5674 5674 5674 5673 5673 5673 5674 5674 5675 5675 5674 5674 5673 5673 5673 5673 5674 5675 5675 5675 5676 5676 5675 5675 5676 5676 5676 5676 5676 5676 5677 5677 5677
5641 5642 5643 5643 5644 5645 5646 5646 5647 5648 5648 5649 5650 5650 5650 5650 5651 5651 5651 5653 5654 5655 5656 5657 5657 5657 5659 5660 5659 5660 5664 5666 5664 5664 5665 5666 5666 5666 5666 5668 5669 5668 5668 5669 5668 5667 5667 5666 5666 5665 5665 5665 5666 5667 5667 5665 5665 5665 5666 5666 5667 5667 5667 5667 5666 5666 5665 5665 5666 5667 5667 5668 5667 5667 5667 5667 5667 5667 5667 5668 5668 5668 5669 5669 5670
5634 5635 5636 5636 5637 5638 5639 5639 5640 5640 5641 5641 5642 5642 5643 5643 5643 5644 5644 5645 5646 5647 5648 5650 5650 5649 5651 5653 5653 5654 5657 5657 5657 5657 5658 5659 5659 5659 5659 5661 5661 5661 5661 5661 5660 5660 5660 5659 5659 5658 5658 5658 5658 5659 5659 5657 5657 5657 5658 5658 5658 5658 5658 5658 5657 5657 5657 5658 5658 5658 5659 5659 5658 5658 5658 5657 5658 5658 5658 5660 5660 5659 5659 5661 5662
5626 5627 5628 5629 5630 5631 5632 5632 5633 5633 5634 5634 5634 5634 5635 5635 5636 5636 5637 5638 5639 5640 5641 5642 5642 5642 5643 5644 5646 5649 5650 5648 5649 5650 5651 5652 5652 5652 5653 5654 5653 5653 5653 5653 5653 5652 5652 5652 5652 5651 5651 5650 5651 5652 5650 5648 5648 5649 5649 5650 5650 5650 5650 5648 5647 5648 5649 5650 5650 5650 5650 5650 5649 5649 5648 5648 5648 5648 5648 5651 5651 5649 5650 5652 5653
5619 5620 5620 5621 5622 5623 5624 5624 5625 5626 5626 5626 5627 5627 5628 5628 5628 5629 5630 5631 5631 5632 5633 5634 5634 5635 5636 5637 5639 5641 5641 5640 5642 5643 5644 5645 5645 5645 5646 5646 5646 5646 5646 5645 5645 5645 5644 5644 5644 5643 5643 5643 5643 5643 5642 5640 5641 5641 5641 5641 5641 5641 5640 5639 5639 5640 5640 5641 5641 5641 5641 5640 5640 5639 5639 5638 5638 5637 5638 5640 5640 5638 5640 5643 5643
5611 5612 5612 5613 5614 5615 5615 5616 5617 5617 5618 5619 5619 5620 5621 5621 5621 5622 5623 5623 5624 5625 5626 5627 5628 5629 5629 5630 5632 5633 5632 5633 5635 5635 5636 5638 5637 5637 5638 5638 5638 5639 5638 5638 5638 5637 5637 5636 5636 5636 5636 5635 5635 5635 5634 5633 5633 5633 5633 5633 5633 5633 5631 5631 5631 5631 5631 5631 5632 5632 5632 5631 5631 5631 5630 5629 5629 5627 5627 5629 5629 5628 5631 5632 5632
5603 5604 5605 5606 5606 5607 5607 5608 5609 5609 5610 5611 5611 5612 5613 5614 5614 5615 5615 5616 5617 5618 5619 5619 5621 5622 5623 5623 5625 5626 5625 5626 5628 5628 5629 5630 5630 5630 5630 5630 5630 5631 5631 5631 5630 5629 5629 5628 5628 5629 5629 5627 5627 5627 5626 5626 5625 5625 5625 5624 5624 5624 5623 5623 5623 5623 5622 5623 5622 5622 5622 5622 5622 5622 5622 5621 5620 5619 5618 5618 5618 5618 5620 5622 5622
5596 5597 5597 5598 5599 5599 5599 5600 5601 5601 5602 5603 5604 5604 5605 5606 5606 5607 5608 5609 5610 5611 5611 5612 5613 5615 5616 5616 5618 5619 5619 5620 5621 5622 5623 5623 5623 5623 5622 5623 5623 5623 5623 5623 5622 5622 5621 5620 5620 5623 5622 5620 5620 5620 5619 5619 5618 5617 5617 5616 5615 5615 5615 5615 5615 5614 5614 5614 5613 5613 5613 5613 5613 5612 5612 5612 5611 5610 5609 5609 5609 5609 5610 5611 5612
5588 5589 5590 5591 5591 5592 5592 5593 5593 5594 5595 5595 5596 5596 5597 5598 5598 5599 5601 5602 5603 5604 5604 5604 5606 5607 5608 5610 5611 5612 5613 5614 5614 5615 5616 5616 5616 5616 5616 5616 5616 5615 5615 5616 5614 5615 5614 5612 5613 5615 5614 5612 5612 5612 5612 5611 5611 5610 5609 5608 5607 5606 5605 5606 5605 5605 5605 5604 5604 5604 5603 5603 5602 5602 5601 5601 5600 5600 5599 5600 5600 5600 5601 5601 5601
5580 5581 5582 5583 5584 5584 5585 5585 5586 5587 5588 5588 5588 5589 5590 5590 5591 5592 5593 5594 5595 5596 5596 5597 5599 5600 5601 5603 5604 5605 5606 5607 5607 5608 5608 5609 5609 5609 5609 5610 5609 5608 5609 5609 5608 5608 5607 5606 5606 5607 5606 5605 5605 5605 5604 5604 5603 5602 5602 5600 5599 5598 5597 5596 5596 5595 5595 5594 5594 5594 5593 5592 5592 5591 5590 5590 5589 5589 5589 5590 5590 5591 5591 5592 5591
5572 5573 5574 5575 5576 5576 5577 5578 5579 5580 5581 5581 5581 5582 5583 5583 5584 5585 5586 5586 5587 5588 5589 5590 5591 5592 5594 5595 5597 5598 5599 5600 5600 5601 5601 5602 5602 5602 5602 5602 5602 5602 5602 5602 5601 5601 5601 5600 5599 5599 5598 5598 5597 5597 5597 5596 5595 5595 5594 5592 5591 5590 5589 5588 5587 5586 5585 5585 5584 5584 5583 5582 5582 5582 5581 5579 5579 5579 5580 5580 5580 5580 5580 5581 5581
5564 5565 5566 5567 5568 5569 5570 5571 5572 5573 5573 5574 5575 5575 5575 5576 5578 5580 5579 5579 5580 5581 5582 5583 5584 5585 5587 5589 5590 5591 5591 5592 5593 5594 5594 5595 5595 5595 5595 5595 5595 5595 5595 5595 5595 5594 5594 5593 5592 5591 5591 5591 5590 5590 5589 5589 5588 5587 5586 5584 5582 5581 5580 5579 5578 5577 5576 5576 5575 5574 5573 5573 5573 5572 5571 5570 5570 5570 5570 5569 5570 5570 5569 5570 5571
5556 5558 5559 5560 5561 5562 5563 5564 5564 5565 5566 5566 5567 5567 5568 5570 5573 5573 5572 5572 5574 5575 5576 5577 5578 5579 5580 5582 5583 5584 5584 5585 5586 5587 5588 5588 5588 5589 5589 5589 5589 5589 5588 5588 5588 5587 5587 5586 5585 5585 5585 5584 5584 5583 5582 5581 5580 5579 5577 5575 5574 5573 5571 5570 5568 5568 5567 5566 5565 5565 5564 5563 5563 5563 5562 5561 5561 5560 5560 5559 5559 5559 5559 5559 5560
5549 5550 5551 5552 5553 5554 5555 5556 5557 5558 5558 5558 5560 5560 5562 5564 5565 5565 5565 5566 5567 5568 5569 5571 5572 5573 5574 5575 5576 5577 5578 5578 5579 5580 5581 5582 5582 5583 5583 5583 5583 5582 5582 5582 5581 5581 5580 5580 5579 5579 5578 5577 5577 5575 5574 5573 5572 5570 5569 5567 5565 5563 5562 5560 5559 5558 5557 5556 5555 5555 5554 5554 5553 5553 5552 5551 5551 5550 5549 5549 5548 5549 5549 5548 5549
5540 5542 5544 5545 5546 5546 5547 5548 5549 5550 5550 5551 5553 5554 5555 5556 5557 5557 5559 5560 5560 5561 5563 5564 5565 5567 5568 5568 5569 5571 5572 5572 5573 5574 5575 5576 5576 5576 5576 5576 5576 5576 5576 5575 5575 5575 5575 5574 5573 5572 5572 5571 5570 5568 5567 5565 5564 5562 5560 5558 5556 5554 5553 5551 5550 5548 5547 5546 5545 5544 5544 5543 5543 5542 5541 5540 5540 5540 5539 5538 5538 5538 5537 5537 5538
5532 5534 5535 5536 5537 5538 5539 5540 5541 5541 5542 5544 5545 5546 5546 5548 5549 5550 5551 5552 5553 5554 5556 5557 5559 5560 5561 5562 5563 5564 5565 5566 5567 5568 5569 5570 5570 5570 5570 5570 5570 5570 5570 5570 5569 5569 5569 5568 5567 5566 5565 5564 5562 5561 5559 5556 5554 5552 5550 5549 5547 5545 5543 5541 5540 5538 5536 5535 5534 5533 5533 5532 5531 5530 5530 5529 5529 5528 5528 5527 5527 5527 5526 5526 5527
5524 5525 5527 5528 5530 5530 5531 5532 5532 5533 5534 5535 5536 5537 5538 5540 5542 5543 5544 5545 5546 5548 5549 5550 5552 5553 5555 5555 5556 5557 5559 5560 5561 5562 5563 5564 5564 5564 5564 5565 5565 5565 5565 5565 5565 5564 5564 5562 5561 5560 5558 5556 5554 5552 5550 5548 5546 5544 5542 5540 5538 5536 5533 5531 5529 5527 5526 5524 5523 5522 5522 5521 5520 5519 5518 5518 5518 5517 5517 5517 5516 5516 5515 5515 5516
5515 5517 5518 5520 5522 5522 5523 5524 5525 5526 5526 5527 5528 5529 5531 5533 5534 5536 5537 5538 5539 5541 5542 5544 5545 5547 5548 5549 5550 5552 5553 5555 5556 5557 5558 5559 5559 5559 5560 5561 5561 5561 5560 5560 5560 5559 5558 5556 5554 5553 5551 5549 5546 5544 5542 5540 5537 5535 5533 5530 5528 5525 5523 5521 5519 5517 5515 5514 5512 5511 5511 5510 5510 5509 5508 5508 5508 5507 5507 5507 5506 5506 5506 5506 5507
5507 5508 5510 5512 5514 5514 5515 5516 5518 5519 5520 5520 5521 5523 5524 5526 5528 5529 5531 5532 5533 5535 5537 5539 5540 5542 5543 5544 5546 5547 5549 5551 5552 5553 5554 5554 5555 5556 5557 5557 5557 5557 5556 5556 5555 5553 5552 5550 5548 5546 5544 5542 5539 5537 5534 5531 5529 5526 5523 5521 5518 5516 5513 5510 5508 5506 5505 5503 5502 5502 5501 5501 5500 5500 5500 5499 5499 5498 5498 5498 5498 5498 5498 5498 5499
5497 5500 5502 5504 5506 5507 5508 5510 5512 5514 5514 5515 5516 5518 5519 5521 5523 5525 5526 5528 5529 5531 5533 5535 5536 5538 5540 5541 5542 5544 5545 5547 5548 5549 5550 5551 5552 5553 5553 5553 5553 5553 5552 5551 5550 5549 5547 5545 5542 5540 5537 5535 5532 5529 5526 5523 5520 5517 5514 5512 5509 5506 5503 5500 5498 5496 5495 5494 5493 5493 5493 5492 5492 5492 5492 5492 5491 5491 5491 5491 5491 5491 5491 5492 5492
5489 5493 5496 5498 5499 5501 5503 5505 5507 5508 5510 5512 5513 5514 5516 5518 5520 5522 5524 5525 5526 5528 5530 5532 5534 5535 5537 5539 5540 5542 5543 5544 5545 5547 5548 5549 5549 5550 5550 5550 5550 5549 5548 5547 5546 5544 5541 5539 5536 5534 5531 5528 5525 5521 5518 5515 5511 5508 5505 5502 5499 5496 5494 5492 5490 5489 5487 5487 5486 5486 5486 5485 5485 5485 5485 5485 5485 5485 5485 5485 5485 5485 5485 5485 5486
5484 5487 5490 5492 5495 5497 5499 5501 5503 5505 5507 5509 5511 5512 5514 5516 5518 5521 5522 5523 5524 5526 5528 5530 5532 5533 5535 5536 5538 5539 5541 5542 5543 5544 5545 5546 5546 5546 5547 5547 5546 5546 5544 5543 5541 5539 5536 5534 5531 5528 5525 5521 5518 5514 5510 5507 5503 5500 5497 5494 5491 5488 5486 5485 5484 5482 5481 5481 5480 5480 5480 5480 5480 5480 5480 5480 5480 5480 5479 5479 5479 5479 5479 5479 5479
5480 5483 5486 5489 5492 5494 5496 5498 5500 5503 5505 5507 5508 5510 5512 5514 5516 5519 5520 5522 5523 5525 5527 5528 5530 5531 5533 5534 5536 5537 5539 5540 5541 5542 5542 5543 5544 5544 5544 5544 5543 5541 5540 5538 5536 5534 5532 5529 5526 5523 5519 5515 5511 5507 5503 5499 5496 5493 5489 5487 5484 5483 5481 5479 5478 5478 5477 5476 5476 5476 5475 5476 5476 5475 5475 5475 5475 5474 5474 5474 5473 5473 5473 5473 5473
5479 5481 5484 5487 5489 5491 5494 5496 5499 5501 5503 5505 5507 5509 5510 5512 5514 5517 5519 5521 5522 5524 5525 5527 5528 5530 5531 5533 5534 5535 5537 5538 5539 5540 5541 5541 5542 5542 5541 5540 5539 5538 5536 5535 5533 5530 5528 5524 5521 5517 5513 5509 5505 5500 5496 5492 5489 5486 5483 5481 5480 5478 5477 5475 5475 5474 5473 5473 5472 5472 5472 5471 5471 5471 5470 5470 5470 5469 5469 5469 5469 5468 5468 5468 5468
5477 5480 5482 5484 5487 5490 5492 5495 5497 5499 5502 5503 5505 5507 5509 5511 5513 5516 5518 5519 5521 5522 5524 5525 5527 5528 5530 5531 5533 5534 5535 5536 5537 5538 5539 5539 5540 5539 5539 5538 5537 5535 5534 5531 5529 5526 5523 5520 5516 5512 5508 5503 5498 5494 5490 5486 5483 5481 5479 5477 5476 5475 5473 5472 5471 5471 5470 5470 5469 5468 5468 5467 5467 5466 5466 5466 5465 5465 5464 5464 5464 5463 5463 5462 5462
5476 5478 5481 5483 5486 5488 5491 5494 5496 5498 5500 5502 5504 5506 5509 5511 5513 5515 5516 5518 5520 5521 5522 5524 5525 5527 5528 5530 5531 5533 5534 5535 5536 5537 5537 5538 5538 5538 5537 5536 5534 5532 5530 5528 5525 5522 5519 5516 5512 5508 5503 5497 5492 5487 5484 5481 5479 5477 5476 5475 5473 5472 5471 5470 5469 5468 5468 5467 5467 5466 5465 5465 5464 5463 5462 5462 5461 5460 5460 5459 5459 5458 5458 5457 5457
5477 5479 5481 5483 5486 5488 5491 5494 5496 5498 5500 5502 5504 5506 5508 5510 5512 5514 5515 5517 5518 5520 5521 5522 5524 5526 5527 5529 5531 5532 5533 5534 5535 5536 5536 5537 5536 5536 5535 5533 5531 5529 5527 5524 5522 5519 5516 5512 5508 5503 5498 5493 5487 5483 5480 5477 5476 5475 5473 5472 5471 5470 5469 5468 5467 5467 5466 5466 5465 5464 5463 5462 5461 5459 5458 5457 5457 5456 5455 5455 5454 5454 5453 5453 5453
5479 5481 5482 5485 5487 5489 5492 5494 5496 5498 5500 5502 5504 5506 5508 5510 5511 5513 5514 5516 5517 5518 5520 5522 5523 5525 5527 5528 5530 5531 5532 5533 5534 5534 5535 5535 5534 5534 5533 5531 5528 5526 5524 5521 5519 5516 5512 5509 5504 5500 5494 5488 5483 5479 5477 5475 5474 5472 5471 5470 5469 5468 5468 5467 5467 5466 5465 5464 5463 5462 5461 5459 5458 5456 5455 5454 5454 5453 5452 5452 5451 5450 5450 5450 5449
5481 5483 5484 5486 5488 5490 5493 5495 5497 5498 5500 5502 5504 5506 5507 5509 5510 5511 5513 5514 5516 5518 5520 5521 5523 5525 5526 5527 5528 5529 5531 5531 5532 5532 5532 5532 5532 5532 5530 5528 5526 5523 5521 5519 5516 5513 5510 5506 5501 5496 5490 5485 5480 5477 5475 5473 5471 5470 5469 5468 5468 5467 5467 5467 5466 5465 5464 5463 5461 5460 5458 5457 5456 5455 5453 5452 5451 5451 5450 5449 5448 5448 5447 5447 5446
5483 5485 5486 5488 5490 5491 5493 5495 5497 5498 5500 5502 5504 5505 5507 5508 5509 5510 5512 5514 5515 5517 5519 5521 5523 5524 5525 5526 5527 5528 5529 5530 5530 5530 5530 5530 5530 5529 5527 5525 5523 5521 5519 5517 5514 5510 5507 5502 5498 5493 5487 5482 5477 5474 5473 5472 5470 5468 5468 5467 5467 5467 5466 5466 5465 5464 5463 5461 5460 5458 5457 5456 5455 5454 5452 5451 5450 5449 5448 5447 5447 5446 5446 5445 5444
5485 5487 5488 5489 5491 5492 5494 5495 5497 5499 5500 5502 5503 5505 5506 5508 5509 5510 5512 5513 5515 5517 5518 5520 5521 5522 5523 5525 5526 5527 5527 5527 5527 5528 5528 5528 5528 5527 5525 5523 5521 5519 5517 5514 5511 5508 5504 5500 5495 5490 5485 5480 5476 5473 5472 5470 5469 5468 5467 5466 5466 5466 5465 5465 5464 5463 5461 5460 5459 5458 5457 5456 5454 5453 5451 5450 5448 5447 5447 5446 5446 5446 5445 5444 5443
5487 5488 5489 5490 5492 5493 5494 5495 5497 5498 5500 5501 5503 5504 5505 5507 5508 5510 5511 5513 5514 5516 5517 5519 5520 5521 5522 5523 5524 5525 5525 5525 5525 5525 5526 5526 5525 5525 5523 5522 5520 5518 5515 5513 5510 5506 5502 5498 5494 5489 5484 5479 5475 5472 5470 5470 5468 5467 5467 5466 5466 5465 5465 5464 5463 5462 5460 5459 5458 5457 5457 5456 5454 5453 5451 5449 5448 5447 5447 5446 5446 5445 5445 5444 5443
5488 5489 5490 5491 5492 5493 5494 5496 5497 5498 5500 5501 5502 5504 5505 5507 5508 5509 5511 5512 5514 5515 5517 5518 5519 5520 5521 5522 5523 5523 5523 5523 5523 5523 5523 5523 5523 5523 5522 5520 5518 5516 5514 5511 5508 5504 5500 5496 5492 5488 5483 5479 5475 5472 5470 5469 5468 5467 5466 5466 5465 5465 5464 5463 5462 5460 5459 5458 5458 5457 5457 5456 5454 5453 5451 5450 5449 5448 5447 5447 5446 5446 5446 5446 5445
5490 5490 5491 5492 5493 5494 5495 5496 5498 5499 5500 5502 5503 5504 5505 5507 5508 5509 5510 5512 5513 5515 5516 5517 5518 5519 5520 5521 5521 5521 5521 5521 5521 5521 5521 5521 5521 5521 5520 5518 5516 5514 5512 5509 5506 5503 5499 5495 5491 5487 5483 5479 5475 5472 5469 5468 5467 5466 5466 5466 5465 5464 5463 5462 5461 5459 5459 5458 5458 5457 5457 5456 5455 5454 5452 5451 5451 5450 5449 5448 5448 5448 5448 5447 5447
5492 5493 5494 5494 5495 5496 5497 5498 5499 5500 5501 5503 5504 5505 5506 5507 5508 5509 5510 5511 5513 5514 5515 5516 5517 5518 5519 5519 5519 5520 5519 5519 5519 5519 5519 5519 5519 5518 5518 5517 5515 5513 5511 5508 5505 5502 5498 5494 5491 5487 5484 5479 5475 5472 5469 5468 5467 5466 5465 5465 5465 5464 5463 5461 5460 5460 5459 5459 5458 5457 5457 5456 5455 5454 5454 5453 5453 5452 5451 5451 5450 5450 5450 5450 5450
5494 5495 5495 5496 5497 5498 5499 5499 5500 5501 5503 5504 5505 5506 5506 5507 5508 5509 5510 5511 5512 5513 5514 5515 5516 5517 5517 5517 5518 5518 5518 5517 5517 5518 5518 5517 5517 5516 5516 5515 5513 5511 5509 5507 5504 5501 5497 5494 5490 5487 5484 5480 5476 5472 5469 5467 5466 5466 5465 5464 5464 5464 5463 5462 5461 5461 5460 5459 5459 5458 5457 5457 5456 5456 5455 5455 5455 5454 5454 5453 5453 5453 5453 5453 5453
5495 5496 5497 5497 5498 5499 5500 5500 5501 5502 5503 5504 5505 5506 5506 5507 5508 5509 5510 5511 5511 5512 5513 5514 5514 5515 5515 5516 5516 5516 5516 5516 5516 5516 5516 5515 5515 5514 5514 5513 5512 5510 5508 5506 5503 5500 5497 5494 5490 5487 5484 5481 5477 5473 5470 5467 5466 5465 5465 5464 5464 5464 5463 5462 5462 5462 5461 5461 5460 5460 5459 5458 5458 5457 5457 5457 5457 5457 5456 5456 5456 5455 5455 5455 5455
5496 5497 5497 5498 5499 5499 5500 5501 5501 5502 5503 5504 5505 5505 5506 5507 5507 5508 5509 5510 5510 5511 5512 5512 5513 5513 5514 5514 5514 5514 5514 5514 5514 5514 5514 5514 5513 5513 5512 5511 5510 5509 5507 5505 5502 5499 5497 5494 5490 5487 5484 5481 5478 5475 5471 5468 5466 5465 5464 5464 5464 5464 5463 5463 5463 5463 5462 5462 5462 5461 5460 5460 5459 5459 5459 5459 5459 5459 5458 5458 5458 5458 5458 5458 5458